カタログに戻る

YAOGAN 10

運用中軍事SSO
NORAD 36834·PAYLOAD·🇨🇳 China

打ち上げ Aug 9, 2010 から Taiyuan Satellite Launch Center

Loading…

次のパス (今後24時間)

TLE

最新Source: Space-Track

元期: Sep 14, 2026, 14:52 UTC

1 36834U 10038A   26257.61993374  .00000474  00000-0  61043-4 0  9993
2 36834  97.8948 280.3128 0001481  87.5634  63.2370 14.85574569870484

AllMySatでYAOGAN 10をリアルタイム追跡

Download on the App Store